NOAA 16 DEB, 42427

Orbit data source: Space-Track

NOAA 16 DEB, 42427 is space debris in SSO originally from a launch on Thu, 21 Sep 2000 UTC launched from the Air Force Western Test Range (AFWTR). Debris objects in space refer to the collection of defunct objects orbiting the Earth. Examples of debris include non-operational satellites, rocket bodies, and fragments generated from explosions, collisions, or faulty payload assembly.

Loading next visibility...
Identifier
42427, 2000-055TX
Orbit
SSO
Country
Flag of USUS
Related business
Manufacturer
Unknown
Mission
Spacecraft
Bus & Motor
Unknown
Mass
Unknown
Launch date (UTC)
2000-09-21 (26 years ago)
Launch vehicle
Unknown
Launch site
Air Force Western Test Range (AFWTR)
Object type
Payload
Rocket body
Debris
Shape & HBR
Unknown shape, 0.1 m
Radar Cross Section
Small (<0.1 m²)

Expand to show TLE details & history
Last TLE update: 1 week ago

TLE from 1 week ago
0 NOAA 16 DEB
1 42427U 00055TX  26160.49011480  .00024946  00000-0  24660-2 0  9996
2 42427  98.8886  73.8168 0025305 211.9075 148.0609 14.91658162516767
Epoch: 2026-06-09T11:45Z
TLE epoch observation values (Epoch: 2026-06-09T11:45:45.918Z)
Latitude
-0.00001°
Longitude
-0.48639°
Altitude
610.756 km
Speed
7.546 km/s
True Right ascension
04h 55m 16s
True Declination
0° 00' 00"
Sunlit
Object was in daylight at epoch
Visualization orbit readout
Latitude
Unknown
Longitude
Unknown
Altitude
Unknown
Speed
Unknown
Apparent Right ascension
Unknown
Apparent Declination
Unknown
Sunlit
N/A
Visualization observer readout
Local Sidereal Time
19:06:14
Azimuth
Unknown
Elevation
Unknown
Doppler factor
Unknown
Orbital elements
Apogee altitude
607.47 km
Perigee altitude
572.205 km
Semi-major axis
6,967.974 km
Eccentricity
0.00253
Inclination
98.8886°
RAAN
73.8168°
Arg. of periapsis
211.9075°
True anomaly
148.21389°
Mean anomaly
148.0609°
Eccentric anomaly
148.13744°
Mean motion
3.7315 °/min
Orbital period
96.48 mins
BSTAR
0.002466
Loading maneuver chart data...
Computing Atmospheric mass density...
Loading historical data...
Loading historical data...
Loading historical data...
Loading historical data...
Loading historical data...
Loading historical data...
Loading historical data...

Documentation

Showing up to 5 results
|